Location: Friedrichshafen
(47.6598°N, 9.4819°E)
Time: 00:46:23
(UTC+01:00)

ISS - Pass Details

Date: 17 November 2017
Orbit: 402 x 407 km, 51.6° (Epoch: 24 November)

Event Time Altitude Azimuth Distance (km) Brightness Sun altitude
Exits shadow 06:21:00 11° 240° (WSW) 1,418 -1.5 -11.7°
Maximum altitude 06:21:43 11° 226° (SW) 1,384 -1.4 -11.6°
Drops below altitude 10° 06:22:43 10° 208° (SSW) 1,448 -1.2 -11.4°
Sets 06:26:02 0° 171° (S) 2,301 0.4 -10.9°
